Tampa Macdill AFB, FL

4:17 AM EDT on July 25, 2017 (GMT -0400)
MacDill Air Force Base

Weather History for KMCF - August, 2013

Change the Weather History Date:

Tuesday, August 6, 2013

  Actual Average Record
Temperature  
Mean Temperature 84 °F -  
Max Temperature 92 °F 87 °F 95 °F (2000)
Min Temperature 75 °F 73 °F 73 °F (1996)
Cooling Degree Days 18    
Growing Degree Days 34 (Base 50)    
Moisture  
Dew Point 77 °F    
Average Humidity 83    
Maximum Humidity 100    
Minimum Humidity 63    
Precipitation  
Precipitation 0.00 in - - ()
Sea Level Pressure  
Sea Level Pressure 29.95 in    
Wind  
Wind Speed 5 mph (North)    
Max Wind Speed 18 mph    
Max Gust Speed 26 mph    
Visibility 9 miles    
Events Rain , Thunderstorm    
Averages and records for this station are not official NWS values.
T = Trace of Precipitation, MM = Missing Value Source: NWS Daily Summary

Daily Weather History Graph

Daily Weather History Graph

Search for Another Location

Airport or City:

Trip Planner

Search our weather history database for the weather conditions in past years. The results will help you decide how hot, cold, wet, or windy it might be!

Date:

Astronomy

Aug. 06, 2013 Rise Set
Actual Time 6:55 AM EDT 8:15 PM EDT
Civil Twilight 6:30 AM EDT 8:40 PM EDT
Nautical Twilight 6:00 AM EDT 9:10 PM EDT
Astronomical Twilight 5:30 AM EDT 9:41 PM EDT
Moon 6:41 AM EDT (8/6) 7:57 PM EDT (8/6)
Length of Visible Light 14h 09m
Length of Day
13h 19m
Waning Crescent, 0% of the Moon is Illuminated
Aug 6
Waning Crescent
Aug 6
New
Aug 14
First Quarter
Aug 20
Full
Aug 28
Last Quarter

Hourly Weather History & Observations

Time (EDT) Temp. Heat Index Dew Point Humidity Pressure Visibility Wind Dir Wind Speed Gust Speed Precip Events Conditions
12:19 AM 80.6 °F 87.1 °F 77.0 °F 89% 29.99 in 10.0 mi NNW 4.6 mph - N/A   Partly Cloudy
12:58 AM 80.4 °F 86.8 °F 77.4 °F 90% 29.99 in 10.0 mi Calm Calm - N/A Thunderstorm Partly Cloudy
1:15 AM 80.6 °F 88.1 °F 78.8 °F 94% 29.97 in 10.0 mi NW 5.8 mph - N/A   Light Drizzle
1:26 AM 80.6 °F 87.1 °F 77.0 °F 89% 29.96 in 9.0 mi NW 6.9 mph - N/A   Partly Cloudy
1:36 AM 80.6 °F 86.2 °F 75.2 °F 84% 29.95 in 5.0 mi NW 3.5 mph - N/A Rain Light Rain
1:48 AM 80.6 °F 86.2 °F 75.2 °F 84% 29.95 in 10.0 mi NNW 3.5 mph - N/A   Partly Cloudy
1:58 AM 80.4 °F 86.0 °F 75.6 °F 85% 29.96 in 10.0 mi North 1.2 mph - 0.00 in   Partly Cloudy
2:02 AM 80.6 °F 87.1 °F 77.0 °F 89% 29.94 in 10.0 mi NNE 4.6 mph - N/A Rain Light Rain
2:15 AM 80.6 °F 87.1 °F 77.0 °F 89% 29.95 in 10.0 mi NE 3.5 mph - N/A   Partly Cloudy
2:58 AM 79.0 °F - 77.7 °F 96% 29.93 in 10.0 mi ESE 3.5 mph - 0.00 in   Partly Cloudy
3:58 AM 77.5 °F - 75.7 °F 94% 29.92 in 10.0 mi NNE 2.3 mph - N/A   Clear
4:58 AM 75.9 °F - 74.5 °F 95% 29.93 in 10.0 mi Calm Calm - N/A   Clear
5:58 AM 76.3 °F - 75.4 °F 97% 29.93 in 10.0 mi Variable 2.3 mph - N/A   Partly Cloudy
6:58 AM 77.0 °F - 77.0 °F 100% 29.94 in 9.0 mi ESE 2.3 mph - N/A   Clear
7:58 AM 79.3 °F - 79.3 °F 100% 29.96 in 10.0 mi ESE 5.8 mph - N/A   Clear
8:58 AM 82.6 °F 92.3 °F 78.4 °F 87% 29.97 in 10.0 mi East 4.6 mph - N/A   Partly Cloudy
9:58 AM 88.3 °F 106.1 °F 80.6 °F 78% 29.99 in 10.0 mi ENE 1.2 mph - N/A   Clear
10:58 AM 90.5 °F 109.6 °F 80.6 °F 73% 30.00 in 10.0 mi ESE 6.9 mph - N/A   Mostly Cloudy
11:53 AM 89.6 °F 102.2 °F 77.0 °F 66% 29.98 in 10.0 mi NE 5.8 mph - N/A Rain Light Rain
11:58 AM 88.7 °F 102.8 °F 78.1 °F 71% 29.99 in 10.0 mi NE 6.9 mph - 0.00 in Rain Light Rain
12:15 PM 86.0 °F 96.9 °F 77.0 °F 74% 29.98 in 10.0 mi Variable 1.2 mph - N/A   Mostly Cloudy
12:58 PM 91.6 °F 107.0 °F 78.3 °F 65% 29.98 in 10.0 mi WSW 10.4 mph - 0.00 in   Partly Cloudy
1:58 PM 92.7 °F 108.7 °F 78.6 °F 63% 29.96 in 10.0 mi South 5.8 mph - N/A   Clear
2:58 PM 91.9 °F 111.2 °F 80.6 °F 69% 29.95 in 10.0 mi SW 8.1 mph - N/A   Clear
3:54 PM 89.6 °F 104.7 °F 78.8 °F 70% 29.93 in 10.0 mi SW 15.0 mph - N/A Thunderstorm Thunderstorm
3:58 PM 88.5 °F 104.1 °F 79.3 °F 74% 29.94 in 10.0 mi WSW 10.4 mph - N/A Thunderstorm Thunderstorm
4:09 PM 87.8 °F 99.7 °F 77.0 °F 70% 29.93 in 10.0 mi WNW 5.8 mph - N/A Thunderstorm Unknown
4:17 PM 86.0 °F 99.3 °F 78.8 °F 79% 29.94 in 10.0 mi North 15.0 mph - N/A Thunderstorm Thunderstorm
4:29 PM 86.0 °F 96.9 °F 77.0 °F 74% 29.94 in 6.0 mi North 18.4 mph 26.5 mph N/A Rain , Thunderstorm Light Thunderstorms and Rain
4:34 PM 86.0 °F 95.1 °F 75.2 °F 70% 29.94 in 2.0 mi North 15.0 mph 26.5 mph N/A Rain , Thunderstorm Light Thunderstorms and Rain
4:37 PM 84.2 °F 92.3 °F 75.2 °F 74% 29.94 in 1.5 mi NW 12.7 mph 26.5 mph N/A Rain , Thunderstorm Light Thunderstorms and Rain
4:42 PM 82.4 °F 88.2 °F 73.4 °F 74% 29.94 in 1.2 mi WNW 11.5 mph - N/A Rain , Thunderstorm Light Thunderstorms and Rain
4:52 PM 80.6 °F 85.4 °F 73.4 °F 79% 29.93 in 1.8 mi WNW 5.8 mph - N/A Rain , Thunderstorm Light Thunderstorms and Rain
4:53 PM 78.8 °F - 73.4 °F 83% 29.93 in 2.0 mi WNW 4.6 mph - N/A Rain , Thunderstorm Light Rain
4:58 PM 79.3 °F - 73.0 °F 81% 29.94 in 3.0 mi West 3.5 mph - 0.00 in Rain Light Rain
5:08 PM 78.8 °F - 73.4 °F 83% 29.92 in 10.0 mi Variable 2.3 mph - N/A Rain Light Rain
5:23 PM 78.8 °F - 75.2 °F 89% 29.92 in 10.0 mi West 3.5 mph - N/A   Clear
5:58 PM 82.6 °F 93.3 °F 79.5 °F 90% 29.94 in 10.0 mi ENE 6.9 mph - 0.00 in   Clear
6:58 PM 80.4 °F 87.0 °F 77.5 °F 91% 29.94 in 10.0 mi Calm Calm - N/A   Scattered Clouds
7:58 PM 82.0 °F 90.5 °F 77.4 °F 86% 29.95 in 10.0 mi East 2.3 mph - N/A   Partly Cloudy
8:58 PM 79.9 °F - 77.4 °F 92% 29.96 in 10.0 mi East 5.8 mph - N/A   Scattered Clouds
9:58 PM 79.5 °F - 77.4 °F 93% 29.97 in 10.0 mi ENE 4.6 mph - N/A   Clear
10:58 PM 78.6 °F - 76.8 °F 94% 29.98 in 10.0 mi ENE 3.5 mph - N/A   Partly Cloudy
11:58 PM 78.4 °F - 76.8 °F 95% 29.97 in 10.0 mi ESE 3.5 mph - N/A   Clear